Regional Weather Roundup
Issued by NWS

Home | Current Version | Previous Version | Text Only | Print | Product List | Glossary On
Versions: 1 2 3 4 5 6 7 8 9 10 11 12 13 14 15 16 17 18 19 20 21 22 23 24 25 26 27 28 29 30 31 32 33 34 35 36 37 38 39 40 41 42 43 44 45 46 47 48 49 50
000
ASUS45 KSLC 310410
RWRUT

UTAH REGIONAL WEATHER ROUNDUP
NATIONAL WEATHER SERVICE SALT LAKE CITY UT
1000 PM MDT SUN AUG 30 2015

UTZ001>011-023>025-310500-

NORTHERN UTAH

CITY           SKY/WX    TMP DP  RH WIND       PRES   REMARKS
BRIGHAM CITY   CLEAR     74  35  23 N18       29.96R
HILL AFB       PTCLDY    73  45  35 SE5       29.98R
LOGAN            N/A     69  38  32 N12       29.98R
OGDEN          PTCLDY    72  45  37 CALM      29.96R
PROVO AIRPORT  MOCLDY    72  54  53 E6        29.97R
SALT LAKE CITY MOCLDY    75  45  34 S5        29.94R
VERNAL         CLOUDY    71  48  43 N5        30.06R
WENDOVER       CLEAR     79  25  13 NW17      29.96R
HEBER CITY     CLOUDY    64  50  59 CALM      30.06R
WEST JORDAN    CLEAR     70  43  37 W5        29.98R

$$

UTZ012>022-026-027-310500-

SOUTHERN/CENTRAL UTAH

CITY           SKY/WX    TMP DP  RH WIND       PRES   REMARKS
BLANDING       CLOUDY    61  57  86 W6        30.25R
BRYCE CANYON   MOCLDY    55  51  86 CALM      30.29R
CEDAR CITY     PTCLDY    72  37  28 SE7       30.07R
DELTA          PTCLDY    73  37  27 S9        29.96R
HANKSVILLE     CLOUDY    81  46  30 CALM      30.02R
MILFORD        PTCLDY    73  38  27 S10       29.99R
MOAB/CYNLANDS  PTCLDY    67  61  81 NE8       30.03R
PRICE          MOCLDY    64  52  64 N8        30.11R
ST GEORGE      CLOUDY    90  39  17 S6        29.88R
KANAB          PTCLDY    64  61  88 N10       30.15R

$$

REGIONAL REPORTS     COLORADO/ARIZONA

CITY           SKY/WX    TMP DP  RH WIND       PRES   REMARKS
CRAIG, CO      CLOUDY    62  52  69 CALM      30.17R
GRAND JUNCTION CLOUDY    62  59  90 SW13      30.15R
RIFLE          RAIN      61  56  83 W14       30.23R
MONTROSE       CLOUDY    64  57  78 S3        30.21R
CORTEZ         CLEAR     65  53  65 NE8       30.18S
PAGE, AZ       RAIN      70  62  76 SW5       30.10R
GRAND CANYON     N/A     60  56  86 MISG      30.23R THUNDER
KINGMAN        PTCLDY    82  42  24 S9        29.93R
FLAGSTAFF      HVY RAIN  57  55  93 SW10      30.28R FOG

$$

REGIONAL REPORTS    NEVADA/IDAHO/WYOMING

CITY           SKY/WX    TMP DP  RH WIND       PRES   REMARKS
LAS VEGAS, NV  PTCLDY    94  39  14 SW8       29.75R HX  90
ELY            MOCLDY    72  26  18 NW13G29   30.08R
ELKO           CLEAR     66  29  24 SE7       30.07R
POCATELLO, ID  CLEAR     58  33  39 S12       30.02R
BURLEY         CLEAR     56  43  61 SE5       30.01R
EVANSTON, WY   CLOUDY    60  44  55 S12G17    30.16S
ROCK SPRINGS   CLOUDY    64  47  53 SW12      30.13R
KEMMERER       CLOUDY    61  36  39 W7        30.17R

$$


USA.gov is the U.S. government's official web portal to all federal, state and local government web resources and services.